Miscellaneous Local Product
Issued by NWS North Platte, NE

Home | Current Version | Previous Version | Text Only | Print | Product List | Glossary On
Versions: 1 2 3 4 5 6 7 8 9 10 11 12 13 14 15 16 17 18 19 20 21 22 23 24 25 26 27 28 29 30 31 32 33 34 35 36 37 38 39 40 41 42 43 44 45 46 47 48 49 50
000
AXUS43 KLBF 141210
MISLBF


WESTERN AND NORTH CENTRAL NEBRASKA HOURLY WEATHER ROUNDUP
NATIONAL WEATHER SERVICE NORTH PLATTE NE
700 AM CDT SUN SEP 14 2014

***STATIONS NOT REPORTING VARIABLES SUCH AS SKY/WEATHER OR
PRESSURE ARE PROVIDED BY THE NEBRASKA DEPARTMENT OF
ROADS...RAWS...AND APRS NETWORKS...AND ARE NOT UNDER
NATIONAL WEATHER SERVICE QUALITY CONTROL***

...OBSERVATIONS IN AND NEAR THE EASTERN PANHANDLE OF NEBRASKA...

CITY           SKY/WX    TMP DP  RH WIND       PRES   REMARKS
PINE RIDGE     CLEAR     39  36  89 E9        30.14F WCI  33
CHADRON        PTCLDY    37  36  96 NE6       30.13F WCI  32
ALLIANCE       MOCLDY    41  39  93 E9        30.11S
SIDNEY         FOG       44  43  96 S3        30.10R VSB 3/4
WHITECLAY        N/A     34  31  90 CALM        N/A
RUSHVILLE        N/A     40  35  84 E14         N/A  WCI  32
CRESCENT LAKE    N/A     44  42  93 SE3         N/A
LISCO            N/A     45  41  86 E7          N/A
BIG SPRINGS      N/A     42  40  94 NE3         N/A
$$

...OBSERVATIONS IN NORTH CENTRAL NEBRASKA...

CITY           SKY/WX    TMP DP  RH WIND       PRES   REMARKS
VALENTINE      PTCLDY    39  37  92 N3        30.18F
THEDFORD       CLEAR     41  41  97 CALM      30.17S
AINSWORTH      PTCLDY    38  37  94 N3        30.18F
O`NEILL        PTCLDY    41  40  97 N5        30.18S
ORD            PTCLDY    37  36  96 CALM      30.17R FOG
BROKEN BOW     CLEAR     36  35  96 N5        30.15F WCI  32
SPRINGVIEW       N/A     38  36  93 CALM        N/A
ROSE             N/A     43  43  99 CALM        N/A
NEWPORT          N/A     37  37 100 W3          N/A
COMSTOCK         N/A     40  39  98 CALM        N/A
CHAMBERS         N/A     42  41  95 CALM        N/A
EWING            N/A     41  40  96 CALM        N/A
$$

...OBSERVATIONS IN SOUTHWEST NEBRASKA AND FAR NORTHEAST COLORADO...

CITY           SKY/WX    TMP DP  RH WIND       PRES   REMARKS
WRAY           FOG      N/A N/A N/A E5        30.10S VSB 1/4
HOLYOKE        FOG       41  37  87 CALM      30.11R VSB 1/4
IMPERIAL       CLEAR     40  38  93 SE7       30.11S
OGALLALA       CLEAR     43  42  96 E5        30.11S
NORTH PLATTE   CLEAR     37  36  96 E6        30.13F WCI  32
MCCOOK         CLEAR     40  38  93 E3        30.14S
LEXINGTON      CLEAR     39  38  95 E3        30.15F
PAXTON           N/A     43  41  92 CALM        N/A
SUTHERLAND       N/A     35  34  94 E3          N/A
BRADY            N/A     38  36  92 CALM        N/A
GOTHENBURG       N/A     40  37  88 CALM        N/A
CALLAWAY         N/A     39  38  97 E3          N/A
$$

...SOME WEATHER OBSERVATIONS FROM AROUND THE REGION...

CITY           SKY/WX    TMP DP  RH WIND       PRES   REMARKS
DENVER         PTCLDY    54  33  45 SW13      30.11S
LARAMIE        CLEAR     41  29  62 SW9       30.18S
CHEYENNE       CLEAR     46  34  62 SW6       30.13S
SCOTTSBLUFF    CLOUDY    44  42  93 MISG      30.10S
RAPID CITY     CLEAR     33  31  92 NW5       30.17S WCI  29
PIERRE         PTCLDY    39  38  96 SW6       30.16R WCI  35
WINNER         FAIR      43  38  82 SW6       30.19R
SIOUX FALLS    PTCLDY    42  40  92 CALM      30.15F
OMAHA          PTCLDY    51  46  83 S8        30.22S
GRAND ISLAND   CLEAR     40  38  93 CALM      30.18S
KANSAS CITY    CLOUDY    52  46  80 SE5       30.25R
WICHITA        PTCLDY    52  47  83 SE6       30.21S
HAYS           CLEAR     43  37  81 SE5       30.16S
LIBERAL        CLEAR     52  46  82 S9        30.14F
GOODLAND       CLEAR     43  43 100 S7        30.12S
$$



USA.gov is the U.S. government's official web portal to all federal, state and local government web resources and services.